EW1268 Weather Reports


Display with metric or nautical units.
time (UTC)temp
F
wind
direction
speed
MPH
gust
MPH
rain 1hr
in
rain 24hr
in
rain mn
in
humidity
%
barometer
mb
20260906120520 78 58 0.0 2.0 0.00 0.01 0.00 94 1012.8
20260906120024 78 67 1.0 2.0 0.00 0.01 0.00 94 1012.7
20260906115513 78 93 1.0 2.0 0.00 0.01 0.00 94 1012.5
20260906115013 78 61 1.0 2.0 0.00 0.01 0.00 94 1012.5
20260906114526 79 93 0.0 2.0 0.00 0.01 0.00 94 1012.5
20260906114012 79 111 0.0 2.0 0.00 0.01 0.00 94 1012.5
20260906113512 79 111 0.0 2.0 0.00 0.01 0.00 94 1012.4
20260906113020 79 76 0.0 2.0 0.00 0.01 0.00 94 1012.4
20260906112511 79 153 0.0 2.0 0.00 0.01 0.00 94 1012.3
20260906112014 79 107 1.0 2.0 0.00 0.01 0.00 94 1012.3
20260906111523 79 119 1.0 2.0 0.00 0.01 0.00 94 1012.3
20260906111014 79 93 0.0 2.0 0.00 0.01 0.00 93 1012.3
20260906110512 79 93 1.0 2.0 0.00 0.01 0.00 93 1012.3
20260906110026 79 93 0.0 1.0 0.00 0.01 0.00 93 1012.4
20260906105509 79 76 0.0 1.0 0.00 0.01 0.00 93 1012.4
20260906105014 79 93 0.0 2.0 0.00 0.01 0.00 93 1012.4
20260906104524 79 119 0.0 2.0 0.00 0.01 0.00 93 1012.4
20260906104014 79 34 0.0 2.0 0.00 0.01 0.00 93 1012.3
20260906103512 79 51 0.0 2.0 0.00 0.01 0.00 93 1012.3
20260906103040 79 76 0.0 1.0 0.00 0.01 0.00 93 1012.3
20260906102520 79 67 0.0 1.0 0.00 0.01 0.00 93 1012.3
20260906102015 79 119 0.0 2.0 0.00 0.01 0.00 93 1012.2
20260906101519 79 178 0.0 2.0 0.00 0.01 0.00 93 1012.2
20260906101016 79 76 0.0 2.0 0.00 0.01 0.00 93 1012.3
20260906100514 79 143 0.0 2.0 0.00 0.01 0.00 93 1012.1
20260906100028 79 119 0.0 2.0 0.00 0.01 0.00 92 1012.0
20260906095511 80 105 1.0 2.0 0.00 0.01 0.00 92 1012.0
20260906095005 80 93 1.0 2.0 0.00 0.01 0.00 92 1012.0
20260906094508 80 93 0.0 2.0 0.00 0.01 0.00 92 1011.9
20260906094006 80 93 0.0 2.0 0.00 0.01 0.00 92 1011.9
20260906093508 80 93 0.0 2.0 0.00 0.01 0.00 92 1011.9
20260906093019 80 93 0.0 2.0 0.00 0.01 0.00 92 1011.8
20260906092516 80 51 0.0 1.0 0.00 0.01 0.00 92 1011.8
20260906092014 80 51 0.0 1.0 0.00 0.01 0.00 92 1011.8
20260906091523 80 51 0.0 2.0 0.00 0.01 0.00 92 1011.9
20260906091004 80 93 0.0 2.0 0.00 0.01 0.00 92 1011.8
20260906090507 80 93 0.0 2.0 0.00 0.01 0.00 92 1011.8
20260906090014 80 67 0.0 1.0 0.00 0.01 0.00 92 1012.0
20260906085512 80 76 0.0 2.0 0.00 0.01 0.00 92 1011.8
20260906085011 80 93 0.0 2.0 0.00 0.01 0.00 91 1011.8
20260906084525 80 51 0.0 2.0 0.00 0.01 0.00 91 1011.7
20260906084020 80 93 0.0 2.0 0.00 0.01 0.00 91 1011.7
20260906083514 80 67 0.0 4.0 0.00 0.01 0.00 91 1011.8
20260906083009 80 165 1.0 4.0 0.00 0.01 0.00 91 1011.8
20260906082507 80 178 0.0 2.0 0.00 0.01 0.00 91 1011.7
20260906082008 80 161 0.0 2.0 0.00 0.01 0.00 91 1011.8
20260906081518 81 137 0.0 3.0 0.00 0.01 0.00 91 1011.8
20260906081011 81 196 0.0 3.0 0.00 0.01 0.00 91 1011.8
20260906080514 81 165 1.0 2.0 0.00 0.01 0.00 91 1011.9
20260906080030 81 178 1.0 2.0 0.00 0.01 0.00 91 1011.9
20260906075514 81 137 0.0 2.0 0.00 0.01 0.00 91 1011.9
20260906075004 81 93 0.0 2.0 0.00 0.01 0.00 91 1011.9
20260906074511 81 168 1.0 3.0 0.00 0.01 0.00 91 1011.9
20260906074011 81 165 1.0 3.0 0.00 0.01 0.00 91 1011.9
20260906073516 81 196 1.0 2.0 0.00 0.01 0.00 91 1012.0
20260906073024 81 178 0.0 2.0 0.00 0.01 0.00 91 1012.1
20260906072515 81 265 0.0 2.0 0.00 0.01 0.00 91 1012.1
20260906072018 81 309 0.0 2.0 0.00 0.01 0.00 91 1012.1
20260906071527 81 265 0.0 4.0 0.00 0.01 0.00 91 1012.2
20260906071007 81 265 1.0 4.0 0.00 0.01 0.00 91 1012.2
20260906070507 81 279 0.0 3.0 0.00 0.01 0.00 91 1012.2
20260906070015 81 238 0.0 3.0 0.00 0.01 0.00 91 1012.3
20260906065515 81 205 0.0 4.0 0.00 0.01 0.00 91 1012.4
20260906065015 81 153 1.0 4.0 0.00 0.01 0.00 91 1012.5
20260906064534 81 9 0.0 4.0 0.00 0.01 0.00 91 1012.5
20260906064016 81 157 1.0 3.0 0.00 0.01 0.00 91 1012.5
20260906063517 81 51 1.0 4.0 0.00 0.01 0.00 91 1012.5
20260906063028 81 144 0.0 4.0 0.00 0.01 0.00 91 1012.4
20260906062507 81 168 1.0 3.0 0.00 0.01 0.00 91 1012.4
20260906062011 81 51 0.0 3.0 0.00 0.01 0.00 91 1012.5
20260906061525 81 165 1.0 4.0 0.00 0.01 0.00 90 1012.4
20260906061013 81 178 1.0 4.0 0.00 0.01 0.00 90 1012.3
20260906060516 81 161 0.0 4.0 0.00 0.01 0.00 90 1012.4
20260906060029 81 153 0.0 5.0 0.00 0.01 0.00 90 1012.4
20260906055518 81 178 1.0 5.0 0.00 0.01 0.00 90 1012.3
20260906055014 81 171 1.0 7.0 0.00 0.01 0.00 90 1012.3
20260906054525 81 153 2.0 7.0 0.00 0.01 0.00 90 1012.2
20260906054009 81 209 1.0 6.0 0.00 0.01 0.00 90 1012.3
20260906053516 81 178 3.0 6.0 0.00 0.01 0.00 90 1012.3
20260906053024 81 170 2.0 6.0 0.00 0.01 0.00 90 1012.2
20260906052516 81 173 1.0 5.0 0.00 0.01 0.00 90 1012.4
20260906052016 81 178 1.0 5.0 0.00 0.01 0.00 90 1012.4
20260906051527 81 168 2.0 5.0 0.00 0.01 0.00 90 1012.5
20260906051018 81 225 2.0 5.0 0.00 0.01 0.00 90 1012.5
20260906050514 81 173 2.0 5.0 0.00 0.01 0.00 90 1012.5
20260906050019 81 161 2.0 7.0 0.00 0.01 0.00 90 1012.5
20260906045514 81 193 2.0 7.0 0.00 0.01 0.01 90 1012.6
20260906045013 81 178 1.0 5.0 0.00 0.01 0.01 90 1012.6
20260906044529 82 51 1.0 6.0 0.00 0.01 0.01 89 1012.6
20260906044018 82 131 1.0 6.0 0.00 0.01 0.01 89 1012.6
20260906043514 82 178 1.0 7.0 0.00 0.01 0.01 89 1012.6
20260906043028 82 191 3.0 7.0 0.00 0.01 0.01 89 1012.5
20260906042510 82 192 3.0 8.0 0.00 0.01 0.01 89 1012.5
20260906042014 82 173 3.0 8.0 0.00 0.01 0.01 89 1012.5
20260906041523 82 137 3.0 6.0 0.00 0.01 0.01 89 1012.5
20260906041013 82 200 1.0 7.0 0.00 0.01 0.01 89 1012.6
20260906040514 82 205 2.0 7.0 0.00 0.01 0.01 89 1012.6
20260906040030 82 178 2.0 6.0 0.00 0.01 0.01 89 1012.6
20260906035515 82 146 2.0 5.0 0.00 0.01 0.01 88 1012.7
20260906035017 82 165 1.0 6.0 0.00 0.01 0.01 88 1012.7
20260906034516 82 161 1.0 9.0 0.00 0.01 0.01 88 1012.6
20260906034010 82 150 1.0 9.0 0.00 0.01 0.01 88 1012.6
20260906033512 82 173 1.0 6.0 0.00 0.01 0.01 88 1012.7
20260906033027 82 200 1.0 6.0 0.00 0.01 0.01 88 1012.6
20260906032515 82 93 1.0 6.0 0.00 0.01 0.01 88 1012.6
20260906032019 82 193 2.0 6.0 0.00 0.01 0.01 88 1012.6
20260906031529 82 146 1.0 5.0 0.00 0.01 0.01 87 1012.5
20260906031020 82 93 1.0 5.0 0.00 0.01 0.01 87 1012.5
20260906030510 82 170 2.0 6.0 0.00 0.01 0.01 87 1012.4
20260906030020 82 188 2.0 7.0 0.00 0.01 0.01 87 1012.4
20260906025519 83 175 3.0 7.0 0.00 0.01 0.01 87 1012.2
20260906025016 83 171 3.0 8.0 0.00 0.01 0.01 87 1012.3
20260906024530 83 194 4.0 8.0 0.00 0.01 0.01 87 1012.3
20260906024003 83 196 2.0 7.0 0.00 0.01 0.01 87 1012.2
20260906023507 83 159 1.0 6.0 0.00 0.01 0.01 88 1012.1
20260906023011 83 198 2.0 6.0 0.00 0.01 0.01 88 1012.0
20260906022508 83 144 2.0 5.0 0.00 0.01 0.01 88 1011.9
20260906022012 83 163 1.0 4.0 0.00 0.01 0.01 88 1011.9
20260906021536 83 161 1.0 6.0 0.00 0.01 0.01 88 1011.8
20260906021015 83 143 1.0 6.0 0.00 0.01 0.01 88 1011.8
20260906020520 83 159 2.0 5.0 0.00 0.01 0.01 88 1011.6
20260906020011 83 148 0.0 3.0 0.00 0.01 0.01 88 1011.6
20260906015507 83 157 0.0 4.0 0.00 0.01 0.01 88 1011.4
20260906015009 83 126 1.0 4.0 0.00 0.01 0.01 88 1011.4
20260906014520 83 143 1.0 4.0 0.00 0.01 0.01 88 1011.4
20260906014009 83 178 1.0 4.0 0.00 0.01 0.01 88 1011.3
20260906013512 83 51 0.0 4.0 0.00 0.01 0.01 88 1011.4
20260906013038 83 93 0.0 4.0 0.00 0.01 0.01 88 1011.4
20260906012519 83 131 1.0 4.0 0.00 0.01 0.01 88 1011.3
20260906012006 83 146 1.0 2.0 0.00 0.01 0.01 88 1011.2
20260906011508 84 137 0.0 2.0 0.00 0.01 0.01 87 1011.2
20260906011009 84 9 0.0 2.0 0.00 0.01 0.01 88 1011.1
20260906010509 84 93 0.0 2.0 0.00 0.01 0.01 88 1011.1
20260906010023 84 67 0.0 2.0 0.00 0.01 0.01 88 1011.2
20260906005512 84 51 0.0 1.0 0.00 0.01 0.01 87 1011.2
20260906005016 85 93 0.0 2.0 0.00 0.01 0.01 87 1011.1
20260906004530 85 93 0.0 2.0 0.00 0.01 0.01 87 1011.2
20260906004006 85 93 0.0 2.0 0.00 0.01 0.01 87 1011.2
20260906003506 85 51 0.0 1.0 0.00 0.01 0.01 87 1011.2
20260906003020 85 126 0.0 1.0 0.00 0.01 0.01 86 1011.2
20260906002511 85 93 0.0 2.0 0.00 0.01 0.01 86 1011.3
20260906002013 85 67 0.0 2.0 0.00 0.01 0.01 86 1011.4
20260906001525 85 93 0.0 2.0 0.00 0.01 0.01 86 1011.4
20260906001015 86 51 0.0 1.0 0.00 0.01 0.01 85 1011.4
20260906000514 86 9 0.0 2.0 0.00 0.01 0.01 85 1011.4
20260906000030 86 34 0.0 2.0 0.00 0.01 0.01 84 1011.4
20260905235509 86 9 0.0 2.0 0.00 0.01 0.01 84 1011.5
20260905235009 87 51 0.0 3.0 0.00 0.01 0.01 84 1011.5
20260905234519 87 93 1.0 3.0 0.00 0.01 0.01 83 1011.5
20260905234014 87 107 1.0 2.0 0.00 0.01 0.01 83 1011.5
20260905233517 87 63 1.0 2.0 0.00 0.01 0.01 83 1011.6
20260905233029 87 67 0.0 5.0 0.00 0.01 0.01 83 1011.6
20260905232520 87 67 0.0 5.0 0.00 0.01 0.01 83 1011.7
20260905232018 87 93 1.0 4.0 0.00 0.01 0.01 83 1011.6
20260905231512 87 165 1.0 3.0 0.00 0.01 0.01 84 1011.5
20260905231007 87 103 1.0 3.0 0.00 0.01 0.01 85 1011.5
20260905230511 87 153 1.0 5.0 0.00 0.01 0.01 86 1011.5
20260905230023 86 205 1.0 5.0 0.00 0.01 0.01 87 1011.5
20260905225514 86 80 1.0 3.0 0.00 0.01 0.01 87 1011.5
20260905225015 86 63 1.0 3.0 0.00 0.01 0.01 87 1011.4
20260905224532 86 105 1.0 3.0 0.00 0.01 0.01 87 1011.2
20260905224018 86 119 0.0 3.0 0.00 0.01 0.01 87 1011.2
20260905223510 85 107 1.0 4.0 0.00 0.01 0.01 87 1011.2
20260905223018 85 157 1.0 4.0 0.00 0.01 0.01 87 1011.2
20260905222510 85 111 0.0 3.0 0.00 0.01 0.01 87 1011.2
20260905222011 85 115 1.0 5.0 0.01 0.01 0.01 87 1011.2
20260905221524 85 178 1.0 5.0 0.01 0.01 0.01 87 1011.2
20260905221017 84 155 2.0 5.0 0.01 0.01 0.01 87 1011.2
20260905220514 84 178 1.0 4.0 0.01 0.01 0.01 88 1011.4
20260905220033 84 103 1.0 4.0 0.01 0.01 0.01 88 1011.3
20260905215509 84 136 0.0 4.0 0.01 0.01 0.01 88 1011.2
20260905215010 84 58 1.0 6.0 0.01 0.01 0.01 87 1011.3
20260905214522 84 178 2.0 6.0 0.01 0.01 0.01 87 1011.3
20260905214013 84 51 1.0 5.0 0.01 0.01 0.01 86 1011.3
20260905213516 84 153 2.0 6.0 0.01 0.01 0.01 85 1011.3
20260905213031 85 165 2.0 10.0 0.01 0.01 0.01 83 1011.5
20260905212517 85 169 2.0 11.0 0.01 0.01 0.01 82 1011.8
20260905212014 87 205 1.0 12.0 0.00 0.00 0.00 80 1012.1
20260905211515 88 175 4.0 12.0 0.00 0.00 0.00 78 1012.1
20260905211008 90 169 4.0 9.0 0.00 0.00 0.00 76 1012.1
20260905210512 91 145 4.0 9.0 0.00 0.00 0.00 72 1012.0
20260905210025 92 167 4.0 13.0 0.00 0.00 0.00 70 1011.9
20260905205517 93 175 4.0 15.0 0.00 0.00 0.00 70 1011.5
20260905205016 94 197 7.0 15.0 0.00 0.00 0.00 69 1011.5
20260905204531 95 138 4.0 12.0 0.00 0.00 0.00 69 1011.6
20260905204019 95 93 3.0 12.0 0.00 0.00 0.00 70 1011.5
20260905203509 94 191 2.0 9.0 0.00 0.00 0.00 71 1011.4
20260905203018 93 178 3.0 7.0 0.00 0.00 0.00 73 1011.5
20260905202512 93 148 3.0 7.0 0.00 0.00 0.00 70 1011.5
20260905202013 93 153 3.0 7.0 0.00 0.00 0.00 69 1011.7
20260905201531 94 72 2.0 11.0 0.00 0.00 0.00 67 1011.7
20260905201016 95 164 4.0 14.0 0.00 0.00 0.00 64 1011.7
20260905200520 97 143 7.0 14.0 0.00 0.00 0.00 61 1011.8
20260905200035 98 187 1.0 5.0 0.00 0.00 0.00 61 1011.7
20260905195512 98 93 1.0 8.0 0.00 0.00 0.00 62 1011.7
20260905195011 98 265 3.0 12.0 0.00 0.00 0.00 58 1011.9
20260905194524 99 193 5.0 12.0 0.00 0.00 0.00 57 1011.9
20260905194014 100 129 4.0 7.0 0.00 0.00 0.00 57 1011.8
20260905193521 100 9 1.0 6.0 0.00 0.00 0.00 60 1011.9
20260905193033 100 103 2.0 6.0 0.00 0.00 0.00 60 1011.9
20260905192517 101 133 2.0 9.0 0.00 0.00 0.00 57 1012.0
20260905192017 101 188 4.0 9.0 0.00 0.00 0.00 59 1011.9
20260905191515 100 150 2.0 8.0 0.00 0.01 0.00 64 1012.0
20260905191012 99 238 1.0 6.0 0.00 0.01 0.00 64 1012.0
20260905190514 98 67 1.0 5.0 0.00 0.01 0.00 63 1012.1
20260905190043 98 291 2.0 6.0 0.00 0.01 0.00 57 1012.2
20260905185514 98 163 1.0 6.0 0.00 0.01 0.00 64 1012.2
20260905185020 98 163 2.0 6.0 0.00 0.01 0.00 61 1012.3
20260905184537 99 22 1.0 6.0 0.00 0.01 0.00 60 1012.3
20260905184019 99 31 2.0 7.0 0.00 0.01 0.00 61 1012.4
20260905183510 98 211 3.0 7.0 0.00 0.01 0.00 63 1012.3
20260905183019 97 98 3.0 9.0 0.00 0.01 0.00 68 1012.5
20260905182514 96 54 2.0 9.0 0.00 0.01 0.00 66 1012.6
20260905182012 96 48 3.0 9.0 0.00 0.01 0.00 64 1012.8
20260905181528 95 119 2.0 6.0 0.00 0.01 0.00 69 1012.9
20260905181014 95 31 2.0 6.0 0.00 0.01 0.00 69 1013.1
20260905180518 95 24 2.0 5.0 0.00 0.01 0.00 68 1013.3
20260905180032 96 284 1.0 5.0 0.00 0.01 0.00 71 1013.5
20260905175509 95 93 1.0 5.0 0.00 0.01 0.00 71 1013.5
20260905175012 94 221 1.0 6.0 0.00 0.01 0.00 69 1013.6
20260905174526 94 93 2.0 6.0 0.00 0.01 0.00 72 1013.7
20260905174013 93 24 3.0 6.0 0.00 0.01 0.00 73 1013.9
20260905173516 92 101 1.0 5.0 0.00 0.01 0.00 74 1013.9
20260905173029 92 291 1.0 5.0 0.00 0.01 0.00 70 1014.0
20260905172518 92 250 1.0 5.0 0.00 0.01 0.00 72 1014.1
20260905172020 92 309 1.0 5.0 0.00 0.01 0.00 72 1014.1
20260905171542 93 15 1.0 4.0 0.00 0.01 0.00 71 1014.1
20260905171011 94 9 1.0 5.0 0.00 0.01 0.00 69 1014.1
20260905170514 96 207 2.0 5.0 0.00 0.01 0.00 68 1014.1
20260905170028 96 178 2.0 5.0 0.00 0.01 0.00 70 1014.2
20260905165514 95 93 2.0 6.0 0.00 0.01 0.00 69 1014.3
20260905165019 95 196 2.0 6.0 0.00 0.01 0.00 71 1014.3
20260905164508 94 221 2.0 5.0 0.00 0.01 0.00 72 1014.3
20260905164009 93 178 1.0 5.0 0.00 0.01 0.00 73 1014.3
20260905163510 92 93 2.0 6.0 0.00 0.01 0.00 74 1014.4
20260905163018 92 238 1.0 6.0 0.00 0.04 0.00 74 1014.4
20260905162514 91 93 1.0 6.0 0.00 0.06 0.00 75 1014.5
20260905162014 91 107 2.0 6.0 0.00 0.06 0.00 78 1014.5
20260905161530 90 168 2.0 6.0 0.00 0.07 0.00 79 1014.5
20260905161019 89 93 0.0 3.0 0.00 0.07 0.00 78 1014.4
20260905160503 89 51 1.0 3.0 0.00 0.07 0.00 80 1014.5
20260905160018 88 123 1.0 3.0 0.00 0.07 0.00 80 1014.4
20260905155514 88 59 1.0 3.0 0.00 0.07 0.00 83 1014.3
20260905155010 88 67 1.0 3.0 0.00 0.07 0.00 81 1014.3
20260905154523 88 80 1.0 3.0 0.00 0.07 0.00 81 1014.4
20260905154013 88 198 1.0 5.0 0.00 0.07 0.00 81 1014.4
20260905153519 88 291 1.0 5.0 0.00 0.07 0.00 78 1014.4
20260905153047 88 93 1.0 4.0 0.00 0.07 0.00 82 1014.4
20260905152507 88 279 1.0 5.0 0.00 0.07 0.00 82 1014.4
20260905152008 87 282 1.0 5.0 0.00 0.07 0.00 83 1014.5
20260905151518 87 283 1.0 5.0 0.00 0.07 0.00 85 1014.6
20260905151011 86 153 1.0 5.0 0.00 0.07 0.00 87 1014.5
20260905150515 85 242 1.0 5.0 0.00 0.07 0.00 88 1014.6
20260905150027 85 229 1.0 4.0 0.00 0.07 0.00 91 1014.5
20260905145517 84 165 2.0 6.0 0.00 0.07 0.00 92 1014.5
20260905145016 84 105 1.0 6.0 0.00 0.07 0.00 93 1014.5
20260905144516 83 265 1.0 5.0 0.00 0.07 0.00 94 1014.4
20260905144019 82 265 1.0 5.0 0.00 0.07 0.00 95 1014.4
20260905143510 81 316 1.0 3.0 0.00 0.07 0.00 95 1014.4
20260905143025 81 316 1.0 3.0 0.00 0.07 0.00 96 1014.4
20260905142513 80 137 0.0 4.0 0.00 0.07 0.00 96 1014.4
20260905142016 80 178 1.0 4.0 0.00 0.07 0.00 96 1014.4
20260905141532 80 51 1.0 3.0 0.00 0.07 0.00 96 1014.5
20260905141017 80 9 1.0 3.0 0.00 0.07 0.00 96 1014.4
20260905140508 80 205 0.0 4.0 0.00 0.07 0.00 96 1014.3
20260905140015 79 238 0.0 4.0 0.00 0.07 0.00 96 1014.2
20260905135511 79 119 0.0 4.0 0.00 0.07 0.00 96 1014.2
20260905135013 79 161 1.0 4.0 0.00 0.07 0.00 97 1014.2
20260905134527 79 171 0.0 2.0 0.00 0.07 0.00 96 1014.2
20260905134017 79 41 0.0 2.0 0.00 0.07 0.00 96 1014.2
20260905133516 78 221 0.0 2.0 0.00 0.07 0.00 96 1014.2
20260905133030 78 129 0.0 2.0 0.00 0.07 0.00 96 1014.3
20260905132506 78 9 0.0 2.0 0.00 0.07 0.00 96 1014.3
20260905132011 78 51 0.0 2.0 0.00 0.07 0.00 96 1014.3
20260905131519 77 137 0.0 2.0 0.00 0.07 0.00 96 1014.2
20260905131016 77 51 1.0 2.0 0.00 0.07 0.00 96 1014.2
20260905130515 77 41 0.0 2.0 0.00 0.07 0.00 96 1014.1
20260905130031 77 119 0.0 2.0 0.00 0.07 0.00 96 1014.0
20260905125517 76 107 0.0 2.0 0.00 0.07 0.00 96 1014.0
20260905125019 76 119 0.0 1.0 0.00 0.07 0.00 96 1013.9
20260905124521 76 9 0.0 2.0 0.00 0.07 0.00 96 1013.9
20260905124009 76 93 0.0 2.0 0.00 0.07 0.00 96 1013.8
20260905123509 76 137 0.0 1.0 0.00 0.07 0.00 96 1013.6
20260905123023 76 51 0.0 1.0 0.00 0.07 0.00 96 1013.6
20260905122512 76 51 0.0 2.0 0.00 0.07 0.00 96 1013.7
20260905122022 76 67 0.0 2.0 0.00 0.07 0.00 95 1013.7
20260905121532 76 67 0.0 2.0 0.00 0.07 0.00 95 1013.6
20260905121020 76 76 0.0 2.0 0.00 0.07 0.00 95 1013.5